Time,TemperatureF,DewpointF,PressureIn,WindDirection,WindDirectionDegrees,WindSpeedMPH,WindSpeedGustMPH,Humidity,HourlyPrecipIn,Conditions,Clouds,dailyrainin,SoftwareType,DateUTC
2013-02-28 00:01:00,53.0,-99.9,30.37,SE,146,6.0,7.0,-999,-99.99,,,-99.99,,2013-02-28 08:01:00,
2013-02-28 00:12:00,53.0,-99.9,30.38,SE,137,6.0,8.0,-999,-99.99,,,-99.99,,2013-02-28 08:12:00,
2013-02-28 00:22:00,53.0,-99.9,30.38,SE,137,6.0,8.0,-999,-99.99,,,-99.99,,2013-02-28 08:22:00,
2013-02-28 00:32:00,53.0,-99.9,30.38,SE,127,7.0,8.0,-999,-99.99,,,-99.99,,2013-02-28 08:32:00,
2013-02-28 00:42:00,53.0,-99.9,30.38,SE,125,4.0,7.0,-999,-99.99,,,-99.99,,2013-02-28 08:42:00,
2013-02-28 00:53:00,53.0,-99.9,30.38,SE,133,5.0,7.0,-999,-99.99,,,-99.99,,2013-02-28 08:53:00,
2013-02-28 01:04:00,53.0,-99.9,30.38,SE,125,6.0,7.0,-999,-99.99,,,-99.99,,2013-02-28 09:04:00,
2013-02-28 01:12:00,53.0,-99.9,30.38,SE,124,5.0,7.0,-999,-99.99,,,-99.99,,2013-02-28 09:12:00,
2013-02-28 01:22:00,53.0,-99.9,30.38,SE,124,5.0,7.0,-999,-99.99,,,-99.99,,2013-02-28 09:22:00,
2013-02-28 01:32:00,52.0,-99.9,30.38,SE,129,5.0,8.0,-999,-99.99,,,-99.99,,2013-02-28 09:32:00,
2013-02-28 01:42:00,52.0,-99.9,30.38,SE,129,5.0,8.0,-999,-99.99,,,-99.99,,2013-02-28 09:42:00,
2013-02-28 01:53:00,52.0,-99.9,30.39,SSE,153,5.0,7.0,-999,-99.99,,,-99.99,,2013-02-28 09:53:00,
2013-02-28 02:02:00,53.0,-99.9,30.39,SSE,167,7.0,8.0,-999,-99.99,,,-99.99,,2013-02-28 10:02:00,
2013-02-28 02:12:00,52.0,-99.9,30.39,SSE,157,6.0,9.0,-999,-99.99,,,-99.99,,2013-02-28 10:12:00,
2013-02-28 02:22:00,52.0,-99.9,30.39,SSE,162,7.0,10.0,-999,-99.99,,,-99.99,,2013-02-28 10:22:00,
2013-02-28 02:32:00,53.0,-99.9,30.39,SSE,163,6.0,9.0,-999,-99.99,,,-99.99,,2013-02-28 10:32:00,
2013-02-28 02:42:00,53.0,-99.9,30.39,SSE,163,6.0,9.0,-999,-99.99,,,-99.99,,2013-02-28 10:42:00,
2013-02-28 02:52:00,53.0,-99.9,30.39,SSE,163,6.0,9.0,-999,-99.99,,,-99.99,,2013-02-28 10:52:00,
2013-02-28 03:02:00,53.0,-99.9,30.39,SSE,163,6.0,9.0,-999,-99.99,,,-99.99,,2013-02-28 11:02:00,
2013-02-28 03:11:00,52.0,-99.9,30.38,SE,128,7.0,10.0,-999,-99.99,,,-99.99,,2013-02-28 11:11:00,
2013-02-28 03:22:00,52.0,-99.9,30.38,SE,131,6.0,7.0,-999,-99.99,,,-99.99,,2013-02-28 11:22:00,
2013-02-28 03:32:00,52.0,-99.9,30.38,SE,144,5.0,9.0,-999,-99.99,,,-99.99,,2013-02-28 11:32:00,
2013-02-28 03:42:00,52.0,-99.9,30.38,SSE,165,6.0,8.0,-999,-99.99,,,-99.99,,2013-02-28 11:42:00,
2013-02-28 03:53:00,52.0,-99.9,30.39,South,170,6.0,7.0,-999,-99.99,,,-99.99,,2013-02-28 11:53:00,
2013-02-28 04:02:00,52.0,-99.9,30.39,South,186,6.0,9.0,-999,-99.99,,,-99.99,,2013-02-28 12:02:00,
2013-02-28 04:12:00,52.0,-99.9,30.39,South,186,6.0,9.0,-999,-99.99,,,-99.99,,2013-02-28 12:12:00,
2013-02-28 04:22:00,52.0,-99.9,30.39,SSE,156,7.0,9.0,-999,-99.99,,,-99.99,,2013-02-28 12:22:00,
2013-02-28 04:32:00,52.0,-99.9,30.38,ESE,122,7.0,9.0,-999,-99.99,,,-99.99,,2013-02-28 12:32:00,
2013-02-28 04:42:00,52.0,-99.9,30.38,ESE,121,8.0,9.0,-999,-99.99,,,-99.99,,2013-02-28 12:42:00,
2013-02-28 04:53:00,52.0,-99.9,30.38,ESE,119,8.0,9.0,-999,-99.99,,,-99.99,,2013-02-28 12:53:00,
2013-02-28 05:02:00,52.0,-99.9,30.38,ESE,123,7.0,8.0,-999,-99.99,,,-99.99,,2013-02-28 13:02:00,
2013-02-28 05:12:00,52.0,-99.9,30.38,ESE,123,7.0,8.0,-999,-99.99,,,-99.99,,2013-02-28 13:12:00,
2013-02-28 05:22:00,52.0,-99.9,30.39,SSE,165,6.0,7.0,-999,-99.99,,,-99.99,,2013-02-28 13:22:00,
2013-02-28 05:32:00,52.0,-99.9,30.39,SSE,165,6.0,7.0,-999,-99.99,,,-99.99,,2013-02-28 13:32:00,
2013-02-28 05:42:00,52.0,-99.9,30.40,South,172,6.0,7.0,-999,-99.99,,,-99.99,,2013-02-28 13:42:00,
2013-02-28 05:52:00,52.0,-99.9,30.40,SSE,151,5.0,7.0,-999,-99.99,,,-99.99,,2013-02-28 13:52:00,
2013-02-28 06:02:00,52.0,-99.9,30.40,SSE,151,5.0,7.0,-999,-99.99,,,-99.99,,2013-02-28 14:02:00,
2013-02-28 06:12:00,52.0,-99.9,30.41,SE,128,5.0,6.0,-999,-99.99,,,-99.99,,2013-02-28 14:12:00,
2013-02-28 06:22:00,52.0,-99.9,30.41,SE,137,6.0,7.0,-999,-99.99,,,-99.99,,2013-02-28 14:22:00,
2013-02-28 06:32:00,52.0,-99.9,30.41,SE,126,5.0,8.0,-999,-99.99,,,-99.99,,2013-02-28 14:32:00,
2013-02-28 06:42:00,52.0,-99.9,30.41,SE,126,5.0,8.0,-999,-99.99,,,-99.99,,2013-02-28 14:42:00,
2013-02-28 06:52:00,51.0,-99.9,30.41,ESE,116,5.0,6.0,-999,-99.99,,,-99.99,,2013-02-28 14:52:00,
2013-02-28 07:02:00,52.0,-99.9,30.42,ESE,121,3.0,4.0,-999,-99.99,,,-99.99,,2013-02-28 15:02:00,
2013-02-28 07:11:00,52.0,-99.9,30.42,ESE,117,4.0,6.0,-999,-99.99,,,-99.99,,2013-02-28 15:11:00,
2013-02-28 07:22:00,52.0,-99.9,30.42,SE,134,3.0,4.0,-999,-99.99,,,-99.99,,2013-02-28 15:22:00,
2013-02-28 07:32:00,52.0,-99.9,30.42,SSE,153,4.0,5.0,-999,-99.99,,,-99.99,,2013-02-28 15:32:00,
2013-02-28 07:42:00,53.0,-99.9,30.42,SE,133,3.0,4.0,-999,-99.99,,,-99.99,,2013-02-28 15:42:00,
2013-02-28 07:52:00,53.0,-99.9,30.42,SE,133,3.0,4.0,-999,-99.99,,,-99.99,,2013-02-28 15:52:00,
2013-02-28 08:02:00,53.0,-99.9,30.43,ESE,119,4.0,5.0,-999,-99.99,,,-99.99,,2013-02-28 16:02:00,
2013-02-28 08:12:00,53.0,-99.9,30.43,ESE,119,4.0,5.0,-999,-99.99,,,-99.99,,2013-02-28 16:12:00,
2013-02-28 08:22:00,53.0,-99.9,30.43,SE,127,3.0,5.0,-999,-99.99,,,-99.99,,2013-02-28 16:22:00,
2013-02-28 08:32:00,53.0,-99.9,30.43,SE,127,3.0,5.0,-999,-99.99,,,-99.99,,2013-02-28 16:32:00,
2013-02-28 08:43:00,53.0,-99.9,30.44,SE,138,2.0,5.0,-999,-99.99,,,-99.99,,2013-02-28 16:43:00,
2013-02-28 08:53:00,53.0,-99.9,30.45,SE,146,5.0,7.0,-999,-99.99,,,-99.99,,2013-02-28 16:53:00,
2013-02-28 09:02:00,54.0,-99.9,30.45,SSE,153,4.0,6.0,-999,-99.99,,,-99.99,,2013-02-28 17:02:00,
2013-02-28 09:12:00,54.0,-99.9,30.45,South,169,5.0,6.0,-999,-99.99,,,-99.99,,2013-02-28 17:12:00,
2013-02-28 09:22:00,54.0,-99.9,30.45,South,169,5.0,6.0,-999,-99.99,,,-99.99,,2013-02-28 17:22:00,
2013-02-28 09:33:00,54.0,-99.9,30.45,South,169,5.0,6.0,-999,-99.99,,,-99.99,,2013-02-28 17:33:00,
2013-02-28 09:42:00,54.0,-99.9,30.46,SSW,196,5.0,6.0,-999,-99.99,,,-99.99,,2013-02-28 17:42:00,
2013-02-28 09:53:00,54.0,-99.9,30.46,South,179,6.0,7.0,-999,-99.99,,,-99.99,,2013-02-28 17:53:00,
2013-02-28 10:02:00,55.0,-99.9,30.46,South,171,4.0,9.0,-999,-99.99,,,-99.99,,2013-02-28 18:02:00,
2013-02-28 10:12:00,55.0,-99.9,30.46,South,175,6.0,7.0,-999,-99.99,,,-99.99,,2013-02-28 18:12:00,
2013-02-28 10:22:00,55.0,-99.9,30.46,South,175,6.0,7.0,-999,-99.99,,,-99.99,,2013-02-28 18:22:00,
2013-02-28 10:32:00,55.0,-99.9,30.46,SSE,154,4.0,6.0,-999,-99.99,,,-99.99,,2013-02-28 18:32:00,
2013-02-28 10:43:00,55.0,-99.9,30.46,SSE,163,5.0,6.0,-999,-99.99,,,-99.99,,2013-02-28 18:43:00,
2013-02-28 10:52:00,55.0,-99.9,30.46,SSE,162,4.0,6.0,-999,-99.99,,,-99.99,,2013-02-28 18:52:00,
2013-02-28 11:02:00,56.0,-99.9,30.46,SSE,159,4.0,8.0,-999,-99.99,,,-99.99,,2013-02-28 19:02:00,
2013-02-28 11:12:00,56.0,-99.9,30.46,SSE,159,4.0,8.0,-999,-99.99,,,-99.99,,2013-02-28 19:12:00,
2013-02-28 11:22:00,57.0,-99.9,30.45,South,173,4.0,6.0,-999,-99.99,,,-99.99,,2013-02-28 19:22:00,
2013-02-28 11:32:00,58.0,-99.9,30.45,SSE,156,3.0,6.0,-999,-99.99,,,-99.99,,2013-02-28 19:32:00,
2013-02-28 11:42:00,58.0,-99.9,30.45,SSE,156,3.0,6.0,-999,-99.99,,,-99.99,,2013-02-28 19:42:00,
2013-02-28 11:52:00,58.0,-99.9,30.45,SSE,156,3.0,6.0,-999,-99.99,,,-99.99,,2013-02-28 19:52:00,
2013-02-28 12:01:00,57.0,-99.9,30.45,South,181,5.0,6.0,-999,-99.99,,,-99.99,,2013-02-28 20:01:00,
2013-02-28 12:12:00,57.0,-99.9,30.45,South,181,5.0,6.0,-999,-99.99,,,-99.99,,2013-02-28 20:12:00,
2013-02-28 12:22:00,57.0,-99.9,30.45,South,181,5.0,6.0,-999,-99.99,,,-99.99,,2013-02-28 20:22:00,
2013-02-28 12:32:00,57.0,-99.9,30.45,South,181,5.0,6.0,-999,-99.99,,,-99.99,,2013-02-28 20:32:00,
2013-02-28 12:52:00,55.0,-99.9,30.43,SW,222,13.0,16.0,-999,-99.99,,,-99.99,,2013-02-28 20:52:00,
2013-02-28 13:02:00,55.0,-99.9,30.43,SW,224,14.0,17.0,-999,-99.99,,,-99.99,,2013-02-28 21:02:00,
2013-02-28 13:11:00,55.0,-99.9,30.43,SW,224,14.0,17.0,-999,-99.99,,,-99.99,,2013-02-28 21:11:00,
2013-02-28 13:22:00,54.0,-99.9,30.43,SW,221,9.0,16.0,-999,-99.99,,,-99.99,,2013-02-28 21:22:00,
2013-02-28 13:32:00,54.0,-99.9,30.43,SW,221,9.0,16.0,-999,-99.99,,,-99.99,,2013-02-28 21:32:00,
2013-02-28 13:42:00,53.0,-99.9,30.42,SSW,198,9.0,13.0,-999,-99.99,,,-99.99,,2013-02-28 21:42:00,
2013-02-28 13:52:00,53.0,-99.9,30.42,SSW,198,9.0,13.0,-999,-99.99,,,-99.99,,2013-02-28 21:52:00,
2013-02-28 14:02:00,53.0,-99.9,30.42,SSW,198,9.0,13.0,-999,-99.99,,,-99.99,,2013-02-28 22:02:00,
2013-02-28 14:11:00,53.0,-99.9,30.42,SSW,198,9.0,13.0,-999,-99.99,,,-99.99,,2013-02-28 22:11:00,
2013-02-28 14:22:00,54.0,-99.9,30.41,SW,219,10.0,14.0,-999,-99.99,,,-99.99,,2013-02-28 22:22:00,
2013-02-28 14:32:00,54.0,-99.9,30.41,SW,219,10.0,14.0,-999,-99.99,,,-99.99,,2013-02-28 22:32:00,
2013-02-28 14:42:00,54.0,-99.9,30.41,SW,219,10.0,14.0,-999,-99.99,,,-99.99,,2013-02-28 22:42:00,
2013-02-28 14:52:00,54.0,-99.9,30.41,SW,219,10.0,14.0,-999,-99.99,,,-99.99,,2013-02-28 22:52:00,
2013-02-28 15:02:00,53.0,-99.9,30.40,SW,224,13.0,15.0,-999,-99.99,,,-99.99,,2013-02-28 23:02:00,
2013-02-28 15:12:00,53.0,-99.9,30.40,SW,224,13.0,15.0,-999,-99.99,,,-99.99,,2013-02-28 23:12:00,
2013-02-28 15:22:00,55.0,-99.9,30.40,SW,220,10.0,13.0,-999,-99.99,,,-99.99,,2013-02-28 23:22:00,
2013-02-28 15:32:00,55.0,-99.9,30.40,SW,220,10.0,13.0,-999,-99.99,,,-99.99,,2013-02-28 23:32:00,
2013-02-28 15:42:00,55.0,-99.9,30.41,SW,221,8.0,11.0,-999,-99.99,,,-99.99,,2013-02-28 23:42:00,
2013-02-28 15:53:00,55.0,-99.9,30.41,SW,221,8.0,11.0,-999,-99.99,,,-99.99,,2013-02-28 23:53:00,
2013-02-28 16:02:00,57.0,-99.9,30.40,SE,135,4.0,5.0,-999,-99.99,,,-99.99,,2013-03-01 00:02:00,
2013-02-28 16:11:00,57.0,-99.9,30.40,SE,135,4.0,5.0,-999,-99.99,,,-99.99,,2013-03-01 00:11:00,
2013-02-28 16:23:00,57.0,-99.9,30.40,SE,135,4.0,5.0,-999,-99.99,,,-99.99,,2013-03-01 00:23:00,
2013-02-28 16:32:00,57.0,-99.9,30.40,SE,135,4.0,5.0,-999,-99.99,,,-99.99,,2013-03-01 00:32:00,
2013-02-28 16:42:00,57.0,-99.9,30.40,SE,135,4.0,5.0,-999,-99.99,,,-99.99,,2013-03-01 00:42:00,
2013-02-28 17:11:00,56.0,-99.9,30.39,South,191,7.0,9.0,-999,-99.99,,,-99.99,,2013-03-01 01:11:00,
2013-02-28 17:22:00,56.0,-99.9,30.39,South,191,7.0,9.0,-999,-99.99,,,-99.99,,2013-03-01 01:22:00,
2013-02-28 17:32:00,56.0,-99.9,30.39,South,191,7.0,9.0,-999,-99.99,,,-99.99,,2013-03-01 01:32:00,
2013-02-28 17:42:00,56.0,-99.9,30.39,South,191,7.0,9.0,-999,-99.99,,,-99.99,,2013-03-01 01:42:00,
2013-02-28 18:22:00,55.0,-99.9,30.40,SW,229,5.0,7.0,-999,-99.99,,,-99.99,,2013-03-01 02:22:00,
2013-02-28 18:32:00,55.0,-99.9,30.40,SW,221,5.0,8.0,-999,-99.99,,,-99.99,,2013-03-01 02:32:00,
2013-02-28 18:42:00,55.0,-99.9,30.40,SW,221,5.0,8.0,-999,-99.99,,,-99.99,,2013-03-01 02:42:00,
2013-02-28 18:52:00,55.0,-99.9,30.40,SW,229,5.0,7.0,-999,-99.99,,,-99.99,,2013-03-01 02:52:00,
2013-02-28 19:02:00,55.0,-99.9,30.40,SW,229,5.0,7.0,-999,-99.99,,,-99.99,,2013-03-01 03:02:00,
2013-02-28 19:12:00,55.0,-99.9,30.40,SW,229,5.0,7.0,-999,-99.99,,,-99.99,,2013-03-01 03:12:00,
2013-02-28 19:22:00,55.0,-99.9,30.40,SW,229,5.0,7.0,-999,-99.99,,,-99.99,,2013-03-01 03:22:00,
2013-02-28 19:32:00,55.0,-99.9,30.42,South,175,5.0,6.0,-999,-99.99,,,-99.99,,2013-03-01 03:32:00,
2013-02-28 19:42:00,55.0,-99.9,30.42,South,175,5.0,6.0,-999,-99.99,,,-99.99,,2013-03-01 03:42:00,
2013-02-28 19:52:00,55.0,-99.9,30.42,South,175,5.0,6.0,-999,-99.99,,,-99.99,,2013-03-01 03:52:00,
2013-02-28 20:02:00,54.0,-99.9,30.42,South,177,3.0,5.0,-999,-99.99,,,-99.99,,2013-03-01 04:02:00,
2013-02-28 20:12:00,55.0,-99.9,30.42,South,177,3.0,5.0,-999,-99.99,,,-99.99,,2013-03-01 04:12:00,
2013-02-28 20:22:00,54.0,-99.9,30.42,South,188,5.0,6.0,-999,-99.99,,,-99.99,,2013-03-01 04:22:00,
2013-02-28 20:32:00,54.0,-99.9,30.42,South,188,5.0,6.0,-999,-99.99,,,-99.99,,2013-03-01 04:32:00,
2013-02-28 20:42:00,54.0,-99.9,30.42,South,188,5.0,6.0,-999,-99.99,,,-99.99,,2013-03-01 04:42:00,
2013-02-28 20:52:00,54.0,-99.9,30.42,South,188,5.0,6.0,-999,-99.99,,,-99.99,,2013-03-01 04:52:00,
2013-02-28 21:02:00,53.0,-99.9,30.43,SW,223,8.0,10.0,-999,-99.99,,,-99.99,,2013-03-01 05:02:00,
2013-02-28 21:11:00,54.0,-99.9,30.43,SW,223,7.0,9.0,-999,-99.99,,,-99.99,,2013-03-01 05:11:00,
2013-02-28 21:22:00,54.0,-99.9,30.43,SW,223,7.0,9.0,-999,-99.99,,,-99.99,,2013-03-01 05:22:00,
2013-02-28 21:33:00,53.0,-99.9,30.43,SW,220,7.0,8.0,-999,-99.99,,,-99.99,,2013-03-01 05:33:00,
2013-02-28 21:42:00,54.0,-99.9,30.44,SW,221,6.0,8.0,-999,-99.99,,,-99.99,,2013-03-01 05:42:00,
2013-02-28 21:53:00,54.0,-99.9,30.44,SW,221,6.0,8.0,-999,-99.99,,,-99.99,,2013-03-01 05:53:00,
2013-02-28 22:02:00,54.0,-99.9,30.44,SW,221,6.0,8.0,-999,-99.99,,,-99.99,,2013-03-01 06:02:00,
2013-02-28 22:12:00,53.0,-99.9,30.44,SSW,212,4.0,7.0,-999,-99.99,,,-99.99,,2013-03-01 06:12:00,
2013-02-28 22:22:00,53.0,-99.9,30.44,SSW,212,4.0,7.0,-999,-99.99,,,-99.99,,2013-03-01 06:22:00,
2013-02-28 22:32:00,53.0,-99.9,30.44,SSW,212,4.0,7.0,-999,-99.99,,,-99.99,,2013-03-01 06:32:00,
2013-02-28 22:43:00,53.0,-99.9,30.44,SSW,212,4.0,7.0,-999,-99.99,,,-99.99,,2013-03-01 06:43:00,
2013-02-28 22:53:00,53.0,-99.9,30.45,SSW,203,4.0,7.0,-999,-99.99,,,-99.99,,2013-03-01 06:53:00,
2013-02-28 23:02:00,53.0,-99.9,30.45,SW,218,5.0,7.0,-999,-99.99,,,-99.99,,2013-03-01 07:02:00,
2013-02-28 23:12:00,53.0,-99.9,30.44,SW,221,5.0,6.0,-999,-99.99,,,-99.99,,2013-03-01 07:12:00,
2013-02-28 23:22:00,53.0,-99.9,30.44,SW,223,6.0,8.0,-999,-99.99,,,-99.99,,2013-03-01 07:22:00,
2013-02-28 23:33:00,53.0,-99.9,30.44,South,188,7.0,8.0,-999,-99.99,,,-99.99,,2013-03-01 07:33:00,
2013-02-28 23:42:00,53.0,-99.9,30.44,South,188,7.0,8.0,-999,-99.99,,,-99.99,,2013-03-01 07:42:00,
2013-02-28 23:52:00,53.0,-99.9,30.44,SSW,200,2.0,4.0,-999,-99.99,,,-99.99,,2013-03-01 07:52:00,